Flag for U.S.A. Weather past 2 weeks in New Haven, Connecticut, U.S.A.

Now
43 °F

Sunny.


Feels Like: 36 °F
Forecast: 33 / 46 °F
Wind: 15 mph from North

Location: Tweed-New Haven Airport


UV Index: 5 (Moderate)

Visibility: 10 mi


Pressure: 30.35 "Hg

Humidity: 29%

Dew point: 13 °F

Location of New HavenLocation

Historic Weather in New Haven

°F

New Haven temperature yesterday

Maximum temperature yesterday: 59 °F (at 2:53 PM)
Minimum temperature yesterday: 37 °F (at 11:53 PM)
Average temperature yesterday: 53 °F

Past Weeks' High & Low Weather Summary

 TemperatureHumidityPressure
High66 °F (Apr 11, 1:53 PM)100% (Apr 8, 6:56 AM)30.34 "Hg (Apr 8, 6:56 AM)
Low30 °F (Apr 10, 5:53 AM)23% (Apr 9, 7:53 PM)29.38 "Hg (Apr 8, 2:53 PM)
Average48 °F67%29.98 "Hg
* Reported Apr 1 11:53 AM — Apr 16 11:53 AM, New Haven, Weather by CustomWeather, © 2014

Note: Actual official high and low records may vary slightly from our data, if they occured in-between our weather recording intervals... More about our weather records

Advertising

Historic Weather Conditions — Data for Previous 24 hours

 ConditionsComfort  
Time TempWeatherWind HumidityBarometerVisibility
11:53 AM
Apr 16
40 °FSunny.15 mph36%30.34 "Hg10 mi
10:53 AM38 °FSunny.12 mph43%30.30 "Hg10 mi
9:53 AM36 °FSunny.13 mph46%30.27 "Hg10 mi
8:53 AM34 °FPassing clouds.15 mph46%30.24 "Hg10 mi
7:53 AM33 °FPassing clouds.13 mph45%30.21 "Hg10 mi
6:53 AM32 °FPassing clouds.20 mph50%30.16 "Hg10 mi
5:53 AM33 °FPassing clouds.15 mph56%30.08 "Hg10 mi
4:53 AM33 °FClear.13 mph58%30.04 "Hg10 mi
3:53 AM33 °FPassing clouds.20 mph63%29.94 "Hg10 mi
3:04 AM34 °FMostly cloudy.10 mph75%29.94 "Hg10 mi
2:53 AM33 °FLight freezing rain. Mostly cloudy.10 mph78%29.94 "Hg9 mi
1:53 AM34 °FLight freezing rain. Mostly cloudy.15 mph79%29.89 "Hg9 mi
12:53 AM35 °FLight rain. Overcast.15 mph82%29.88 "Hg10 mi
11:53 PM
Apr 15
37 °FRain. Mostly cloudy.10 mph82%29.84 "Hg9 mi
10:53 PM39 °FLight rain. Mostly cloudy.17 mph79%29.80 "Hg9 mi
10:01 PM43 °FLight rain. Mostly cloudy.13 mph76%29.77 "Hg7 mi
8:53 PM46 °FOvercast.15 mph77%29.71 "Hg10 mi
6:53 PM54 °FLight rain. Fog.10 mph93%29.59 "Hg4 mi
5:53 PM57 °FLight rain. Fog.15 mph90%29.58 "Hg5 mi
4:53 PM56 °FLight rain. Fog.14 mph93%29.56 "Hg2 mi
4:00 PM57 °FLight rain. Fog.12 mph88%29.60 "Hg6 mi
2:53 PM59 °FLight rain. Fog.18 mph90%29.61 "Hg3 mi
1:53 PM57 °FLight rain. Fog.23 mph93%29.62 "Hg2 mi
Weather by CustomWeather, © 2014

See weather overview